Orbital Elements at Epoch 2459200.5 (2020-Dec-17.0) TDB
Reference: JPL 13 (heliocentric ecliptic J2000)
Element | Value | Uncertainty (1-sigma) | Units |
e | .2042571289854024 | 4.1963e-08 | |
a | 2.31474162253054 | 1.1573e-08 | au |
q | 1.84193914436944 | 9.6237e-08 | au |
i | 5.350308291194779 | 3.8591e-06 | deg |
node | 74.02973451820677 | 7.4175e-05 | deg |
peri | 161.2760517287462 | 7.682e-05 | deg |
M | 124.8806298588627 | 2.277e-05 | deg |
tp | 2458754.284360301529 (2019-Sep-27.78436030) | 7.9537e-05 | TDB |
period | 1286.329436943091 3.52 | 9.6468e-06 2.641e-08 | d yr |
n | .27986609779803 | 2.0988e-09 | deg/d |
Q | 2.78754410069164 | 1.3937e-08 | au |
|
| | Orbit Determination Parameters
Additional Information
|